sat.trackr.live / text

‹ back to catalog

STARLINK-32508

NORAD 62158 · 2024-224V

PAYLOAD ACTIVE UNKNOWN

§ Identity

Operator
Country
US
Launch date
2024-11-30
Launch site
AFETR
Launch vehicle
Mass (kg)
RCS (m²)

Purposes: comms

External: N2YO · Heavens-Above · Gunter

§ Orbital elements

Epoch: 2026-05-24T22:55:00.856128Z

Period
94.27 min
Inclination
42.9971°
Eccentricity
0.0000980
Mean motion
15.27592102 rev/d
Perigee alt
482.3 km
Apogee alt
483.7 km
Semi-major
6,861.1 km
B*
3.7939e-4
RAAN
87.4050°
Arg perigee
245.5058°
Mean anomaly
114.5691°
Rev number
8,414

§ Raw data

STARLINK-325081 62158U 24224V   26144.95487102  .00010196  00000+0  37939-3 0  99992 62158  42.9971  87.4050 0000980 245.5058 114.5691 15.27592102 84144

JSON: /api/v1/satellites/62158 · /tle

For live sub-satellite position, see the globe view (requires WebGL).

§ Visibility from observer

Set your observer location to see the next 7 days of passes ≥ 10°. The values pass through the URL so the page stays shareable.

No JS? Fill the form by hand. The geolocation button needs JavaScript.